Location: 433rd Scouts Home(Lloyd Manor Park, Etobicoke )
(43.6722°N, 79.5542°W)
Time: 06:01:07
(UTC-04:00)

N. Korean satellite - Pass Details

Date: 02 October 2021
Orbit: 450 x 495 km, 97.3° (Epoch: 15 October)

Event Time Altitude Azimuth Distance (km) Brightness Sun altitude
Rises 05:39:28 0° 30° (NNE) 2,554 10.9 -18.4°
Reaches altitude 10° 05:42:08 10° 52° (NE) 1,677 10.3 -17.9°
Maximum altitude 05:44:30 16° 93° (E) 1,327 9.8 -17.5°
Drops below altitude 10° 05:46:51 10° 134° (SE) 1,680 9.8 -17.1°
Sets 05:49:32 0° 155° (SSE) 2,562 10.4 -16.6°
